• In Czech Republic
  • List of Countries
  • For 7 days
  • Water Temperature
  • Satellite Maps
  • Weather Map
  • Weather Widgets
  • user-avatar
    Login

    Hourly Weather Sondrio

    Today, 18 November, Saturday

    Time Temperature Precipitation Wind Pressure Humidity
    00:00 +5°C° 0 mm 2 mps 735 mmHg 81%
    01:00 +5°C° 0 mm 2 mps 735 mmHg 80%
    02:00 +5°C° 0 mm 2 mps 735 mmHg 80%
    03:00 +4°C° 0 mm 2 mps 734 mmHg 80%
    04:00 +4°C° 0 mm 2 mps 734 mmHg 80%
    05:00 +4°C° 0 mm 2 mps 734 mmHg 80%
    06:00 +4°C° 0 mm 2 mps 734 mmHg 80%
    07:00 +3°C° 0 mm 2 mps 734 mmHg 80%
    08:00 +5°C° 0 mm 2 mps 734 mmHg 75%
    09:00 +7°C° 0 mm 2 mps 734 mmHg 70%
    10:00 +8°C° 0 mm 2 mps 734 mmHg 65%
    11:00 +9°C° 0 mm 2 mps 734 mmHg 63%
    12:00 +10°C° 0 mm 2 mps 733 mmHg 61%
    13:00 +12°C° 0 mm 2 mps 733 mmHg 59%
    14:00 +10°C° 0 mm 2 mps 733 mmHg 64%
    15:00 +9°C° 0 mm 2 mps 733 mmHg 70%
    16:00 +9°C° 0 mm 1 mps 732 mmHg 75%
    17:00 +6°C° 0 mm 2 mps 733 mmHg 73%
    18:00 +5°C° 0 mm 2 mps 733 mmHg 72%
    19:00 +4°C° 0 mm 2 mps 734 mmHg 70%
    20:00 +4°C° 0 mm 2 mps 734 mmHg 67%
    21:00 +3°C° 0 mm 2 mps 734 mmHg 63%
    22:00 +3°C° 0 mm 2 mps 734 mmHg 60%
    23:00 +3°C° 0 mm 2 mps 734 mmHg 58%

    Tomorrow, 19 November, Sunday

    Time Temperature Precipitation Wind Pressure Humidity
    00:00 +2°C° 0 mm 3 mps 733 mmHg 57%
    01:00 +2°C° 0 mm 3 mps 733 mmHg 55%
    02:00 +3°C° 0 mm 2 mps 733 mmHg 54%
    03:00 +4°C° 0 mm 2 mps 732 mmHg 53%
    04:00 +4°C° 0 mm 2 mps 732 mmHg 52%
    05:00 +5°C° 0.1 mm 2 mps 732 mmHg 56%
    06:00 +5°C° 0.1 mm 2 mps 731 mmHg 61%
    07:00 +5°C° 0.1 mm 2 mps 731 mmHg 66%
    08:00 +7°C° 0.2 mm 2 mps 731 mmHg 67%
    09:00 +8°C° 0.2 mm 2 mps 731 mmHg 67%
    10:00 +9°C° 0.2 mm 2 mps 731 mmHg 68%
    11:00 +10°C° 0.1 mm 2 mps 731 mmHg 66%
    12:00 +10°C° 0.1 mm 3 mps 731 mmHg 64%
    13:00 +11°C° 0.1 mm 3 mps 731 mmHg 61%
    14:00 +10°C° 0 mm 3 mps 731 mmHg 65%
    15:00 +9°C° 0 mm 3 mps 731 mmHg 69%
    16:00 +8°C° 0 mm 3 mps 731 mmHg 73%
    17:00 +7°C° 0 mm 3 mps 732 mmHg 73%
    18:00 +4°C° 0 mm 3 mps 732 mmHg 74%
    19:00 +3°C° 0 mm 3 mps 733 mmHg 75%
    20:00 +3°C° 0 mm 3 mps 733 mmHg 74%
    21:00 +2°C° 0 mm 3 mps 734 mmHg 74%
    22:00 +2°C° 0 mm 3 mps 734 mmHg 73%
    23:00 +2°C° 0 mm 3 mps 735 mmHg 73%

    Day after tomorrow, 20 November, Monday

    Time Temperature Precipitation Wind Pressure Humidity
    00:00 +1°C° 0 mm 3 mps 735 mmHg 72%
    01:00 +1°C° 0 mm 3 mps 735 mmHg 71%
    02:00 +1°C° 0 mm 3 mps 735 mmHg 68%
    03:00 +1°C° 0 mm 3 mps 735 mmHg 64%
    04:00 +2°C° 0 mm 2 mps 735 mmHg 61%
    05:00 +2°C° 0 mm 2 mps 735 mmHg 58%
    06:00 +2°C° 0 mm 2 mps 736 mmHg 55%
    07:00 +2°C° 0 mm 2 mps 736 mmHg 52%
    08:00 +4°C° 0 mm 2 mps 736 mmHg 50%
    09:00 +6°C° 0 mm 2 mps 736 mmHg 48%
    10:00 +9°C° 0 mm 1 mps 736 mmHg 45%
    11:00 +10°C° 0 mm 1 mps 735 mmHg 46%
    12:00 +10°C° 0 mm 2 mps 735 mmHg 47%
    13:00 +12°C° 0 mm 2 mps 734 mmHg 47%
    14:00 +10°C° 0 mm 2 mps 734 mmHg 53%
    15:00 +9°C° 0 mm 2 mps 734 mmHg 59%
    16:00 +8°C° 0 mm 2 mps 734 mmHg 66%
    17:00 +7°C° 0 mm 2 mps 734 mmHg 67%
    18:00 +6°C° 0 mm 2 mps 734 mmHg 69%
    19:00 +5°C° 0 mm 2 mps 735 mmHg 71%
    20:00 +5°C° 0 mm 2 mps 735 mmHg 70%
    21:00 +5°C° 0 mm 2 mps 735 mmHg 70%
    22:00 +6°C° 0 mm 2 mps 735 mmHg 70%
    23:00 +6°C° 0 mm 2 mps 734 mmHg 69%

    21 November, Tuesday

    Time Temperature Precipitation Wind Pressure Humidity
    00:00 +6°C° 0 mm 2 mps 734 mmHg 68%
    01:00 +5°C° 0 mm 2 mps 734 mmHg 68%
    02:00 +6°C° 0 mm 2 mps 734 mmHg 66%
    03:00 +6°C° 0 mm 2 mps 734 mmHg 65%
    04:00 +6°C° 0 mm 2 mps 733 mmHg 63%
    05:00 +6°C° 0 mm 2 mps 734 mmHg 64%
    06:00 +5°C° 0 mm 2 mps 734 mmHg 64%
    07:00 +5°C° 0 mm 2 mps 734 mmHg 65%
    08:00 +7°C° 0 mm 2 mps 734 mmHg 64%
    09:00 +9°C° 0 mm 2 mps 734 mmHg 63%
    10:00 +12°C° 0 mm 1 mps 734 mmHg 62%
    11:00 +13°C° 0 mm 2 mps 734 mmHg 63%
    12:00 +13°C° 0 mm 2 mps 733 mmHg 64%
    13:00 +14°C° 0 mm 2 mps 733 mmHg 65%
    14:00 +13°C° 0 mm 1 mps 733 mmHg 69%
    15:00 +12°C° 0 mm 1 mps 733 mmHg 74%
    16:00 +11°C° 0 mm 1 mps 733 mmHg 78%
    17:00 +10°C° 0 mm 1 mps 733 mmHg 78%
    18:00 +10°C° 0 mm 1 mps 733 mmHg 77%
    19:00 +9°C° 0 mm 1 mps 734 mmHg 77%
    20:00 +8°C° 0 mm 1 mps 734 mmHg 76%
    21:00 +8°C° 0 mm 1 mps 734 mmHg 74%
    22:00 +8°C° 0 mm 1 mps 734 mmHg 73%
    23:00 +8°C° 0 mm 1 mps 734 mmHg 72%

    22 November, Wednesday

    Time Temperature Precipitation Wind Pressure Humidity
    00:00 +8°C° 0 mm 1 mps 734 mmHg 71%
    01:00 +8°C° 0 mm 1 mps 734 mmHg 70%
    02:00 +8°C° 0 mm 1 mps 734 mmHg 70%
    03:00 +7°C° 0 mm 1 mps 734 mmHg 70%
    04:00 +7°C° 0 mm 1 mps 734 mmHg 70%
    05:00 +7°C° 0 mm 1 mps 734 mmHg 71%
    06:00 +7°C° 0 mm 1 mps 734 mmHg 71%
    07:00 +7°C° 0 mm 1 mps 734 mmHg 71%
    08:00 +9°C° 0 mm 1 mps 734 mmHg 70%
    09:00 +10°C° 0 mm 1 mps 734 mmHg 68%
    10:00 +12°C° 0 mm 1 mps 734 mmHg 66%
    11:00 +13°C° 0 mm 1 mps 734 mmHg 68%
    12:00 +13°C° 0 mm 1 mps 734 mmHg 70%
    13:00 +14°C° 0 mm 2 mps 733 mmHg 72%
    14:00 +13°C° 0 mm 1 mps 733 mmHg 76%
    15:00 +12°C° 0 mm 1 mps 733 mmHg 80%
    16:00 +11°C° 0 mm 1 mps 733 mmHg 84%
    17:00 +10°C° 0 mm 1 mps 733 mmHg 85%
    18:00 +9°C° 0 mm 1 mps 733 mmHg 86%
    19:00 +8°C° 0 mm 1 mps 734 mmHg 87%
    20:00 +8°C° 0 mm 1 mps 734 mmHg 86%
    21:00 +8°C° 0 mm 1 mps 734 mmHg 85%
    22:00 +8°C° 0 mm 1 mps 734 mmHg 84%
    23:00 +6°C° 0 mm 2 mps 734 mmHg 84%

    23 November, Thursday

    Time Temperature Precipitation Wind Pressure Humidity
    00:00 +6°C° 0 mm 2 mps 734 mmHg 84%
    01:00 +6°C° 0 mm 2 mps 735 mmHg 85%
    02:00 +6°C° 0 mm 2 mps 734 mmHg 86%
    03:00 +6°C° 0 mm 2 mps 734 mmHg 86%
    04:00 +6°C° 0 mm 2 mps 734 mmHg 87%
    05:00 +6°C° 0 mm 2 mps 734 mmHg 88%
    06:00 +7°C° 0 mm 2 mps 734 mmHg 88%
    07:00 +7°C° 0 mm 2 mps 734 mmHg 89%
    08:00 +8°C° 0 mm 2 mps 734 mmHg 89%
    09:00 +9°C° 0 mm 2 mps 735 mmHg 89%
    10:00 +10°C° 0 mm 2 mps 735 mmHg 89%
    11:00 +10°C° 0 mm 2 mps 734 mmHg 88%
    12:00 +12°C° 0 mm 2 mps 734 mmHg 87%
    13:00 +12°C° 0 mm 2 mps 734 mmHg 86%
    14:00 +12°C° 0 mm 2 mps 734 mmHg 88%
    15:00 +12°C° 0 mm 2 mps 734 mmHg 90%
    16:00 +10°C° 0 mm 2 mps 734 mmHg 92%
    17:00 +10°C° 0 mm 2 mps 734 mmHg 93%
    18:00 +9°C° 0 mm 2 mps 735 mmHg 94%
    19:00 +9°C° 0 mm 2 mps 735 mmHg 95%
    20:00 +9°C° 0 mm 2 mps 735 mmHg 94%
    21:00 +9°C° 0 mm 2 mps 736 mmHg 94%
    22:00 +9°C° 0 mm 1 mps 736 mmHg 93%
    23:00 +9°C° 0 mm 1 mps 736 mmHg 93%
    Show more